Time,TemperatureF,DewpointF,PressureIn,WindDirection,WindDirectionDegrees,WindSpeedMPH,WindSpeedGustMPH,Humidity,HourlyPrecipIn,Conditions,Clouds,dailyrainin,SoftwareType,DateUTC
2013-10-17 00:01:00,53.8,51.8,29.85,ESE,121,2.0,2.0,93,0.00,,,0.00,meteohub,2013-10-17 04:01:00,
2013-10-17 00:02:00,53.8,51.8,29.85,SE,126,4.0,4.0,93,0.00,,,0.00,meteohub,2013-10-17 04:02:00,
2013-10-17 00:06:00,53.8,51.8,29.85,SE,126,0.0,5.0,93,0.00,,,0.00,meteohub,2013-10-17 04:06:00,
2013-10-17 00:07:00,53.8,51.8,29.85,SE,126,0.0,5.0,93,0.00,,,0.00,meteohub,2013-10-17 04:07:00,
2013-10-17 00:11:00,53.8,51.8,29.84,SE,130,2.0,5.0,93,0.00,,,0.00,meteohub,2013-10-17 04:11:00,
2013-10-17 00:16:00,54.0,52.0,29.85,South,177,0.0,5.0,93,0.00,,,0.00,meteohub,2013-10-17 04:16:00,
2013-10-17 00:21:00,54.0,52.0,29.84,South,177,0.0,3.0,93,0.00,,,0.00,meteohub,2013-10-17 04:21:00,
2013-10-17 00:26:00,54.0,52.0,29.84,South,177,0.0,3.0,93,0.00,,,0.00,meteohub,2013-10-17 04:26:00,
2013-10-17 00:31:00,54.0,52.0,29.84,SE,146,0.0,1.0,93,0.00,,,0.00,meteohub,2013-10-17 04:31:00,
2013-10-17 00:36:00,54.0,52.0,29.84,SE,146,0.0,2.0,93,0.00,,,0.00,meteohub,2013-10-17 04:36:00,
2013-10-17 00:41:00,53.8,51.8,29.84,SSE,148,0.0,2.0,93,0.00,,,0.00,meteohub,2013-10-17 04:41:00,
2013-10-17 00:46:00,53.8,51.8,29.83,SE,140,0.0,2.0,93,0.00,,,0.00,meteohub,2013-10-17 04:46:00,
2013-10-17 00:52:00,53.8,51.8,29.83,SE,139,0.0,3.0,93,0.00,,,0.00,meteohub,2013-10-17 04:52:00,
2013-10-17 00:57:00,53.8,51.8,29.83,SE,139,0.0,3.0,93,0.00,,,0.00,meteohub,2013-10-17 04:57:00,
2013-10-17 01:02:00,53.8,51.8,29.83,SE,140,0.0,2.0,93,0.00,,,0.00,meteohub,2013-10-17 05:02:00,
2013-10-17 01:07:00,53.8,51.8,29.83,SE,140,0.0,3.0,93,0.00,,,0.00,meteohub,2013-10-17 05:07:00,
2013-10-17 01:12:00,53.8,51.8,29.82,SSE,148,0.0,3.0,93,0.00,,,0.00,meteohub,2013-10-17 05:12:00,
2013-10-17 01:17:00,53.8,51.4,29.83,SE,146,0.0,3.0,92,0.00,,,0.00,meteohub,2013-10-17 05:17:00,
2013-10-17 01:22:00,53.8,51.4,29.83,SSE,148,1.0,3.0,92,0.00,,,0.00,meteohub,2013-10-17 05:22:00,
2013-10-17 01:27:00,54.0,51.6,29.83,SSE,148,0.0,3.0,92,0.00,,,0.00,meteohub,2013-10-17 05:27:00,
2013-10-17 01:32:00,53.8,51.4,29.83,SSE,149,0.0,2.0,92,0.00,,,0.00,meteohub,2013-10-17 05:32:00,
2013-10-17 01:37:00,54.0,51.6,29.83,South,171,0.0,2.0,92,0.00,,,0.00,meteohub,2013-10-17 05:37:00,
2013-10-17 01:42:00,53.8,51.4,29.82,South,170,0.0,2.0,92,0.00,,,0.00,meteohub,2013-10-17 05:42:00,
2013-10-17 01:47:00,54.0,51.6,29.82,South,170,0.0,2.0,92,0.00,,,0.00,meteohub,2013-10-17 05:47:00,
2013-10-17 01:52:00,53.8,51.4,29.82,South,170,0.0,1.0,92,0.00,,,0.00,meteohub,2013-10-17 05:52:00,
2013-10-17 01:57:00,53.8,51.4,29.81,South,170,0.0,1.0,92,0.00,,,0.00,meteohub,2013-10-17 05:57:00,
2013-10-17 02:02:00,53.8,51.4,29.81,SE,133,0.0,3.0,92,0.00,,,0.00,meteohub,2013-10-17 06:02:00,
2013-10-17 02:07:00,53.8,51.8,29.81,SSE,148,1.0,3.0,93,0.00,,,0.00,meteohub,2013-10-17 06:07:00,
2013-10-17 02:12:00,53.8,51.8,29.81,SSE,156,0.0,3.0,93,0.00,,,0.00,meteohub,2013-10-17 06:12:00,
2013-10-17 02:17:00,53.6,51.6,29.80,SE,137,0.0,3.0,93,0.00,,,0.00,meteohub,2013-10-17 06:17:00,
2013-10-17 02:22:00,53.4,51.8,29.79,SE,136,0.0,4.0,94,0.00,,,0.00,meteohub,2013-10-17 06:22:00,
2013-10-17 02:27:00,53.4,51.8,29.78,SSE,163,2.0,6.0,94,0.01,,,0.01,meteohub,2013-10-17 06:27:00,
2013-10-17 02:32:00,53.2,51.8,29.78,ESE,122,2.0,6.0,95,0.01,,,0.01,meteohub,2013-10-17 06:32:00,
2013-10-17 02:37:00,53.1,51.6,29.79,SSW,201,0.0,4.0,95,0.01,,,0.01,meteohub,2013-10-17 06:37:00,
2013-10-17 02:42:00,53.1,51.6,29.79,SSW,202,0.0,4.0,95,0.01,,,0.01,meteohub,2013-10-17 06:42:00,
2013-10-17 02:47:00,53.1,51.6,29.79,SW,229,0.0,3.0,95,0.02,,,0.02,meteohub,2013-10-17 06:47:00,
2013-10-17 02:52:00,52.9,51.4,29.78,SW,221,0.0,3.0,95,0.02,,,0.02,meteohub,2013-10-17 06:52:00,
2013-10-17 02:57:00,52.9,51.8,29.78,South,170,1.0,3.0,96,0.02,,,0.02,meteohub,2013-10-17 06:57:00,
2013-10-17 03:02:00,52.9,51.8,29.78,SE,126,0.0,3.0,96,0.02,,,0.02,meteohub,2013-10-17 07:02:00,
2013-10-17 03:07:00,52.7,51.6,29.78,SE,126,0.0,3.0,96,0.02,,,0.02,meteohub,2013-10-17 07:07:00,
2013-10-17 03:12:00,52.7,51.6,29.78,SSW,200,0.0,3.0,96,0.02,,,0.02,meteohub,2013-10-17 07:12:00,
2013-10-17 03:17:00,52.5,51.4,29.78,SSW,213,0.0,3.0,96,0.02,,,0.02,meteohub,2013-10-17 07:17:00,
2013-10-17 03:22:00,52.5,51.4,29.77,SSE,152,1.0,3.0,96,0.01,,,0.02,meteohub,2013-10-17 07:22:00,
2013-10-17 03:27:00,52.5,51.4,29.77,SE,136,0.0,4.0,96,0.01,,,0.02,meteohub,2013-10-17 07:27:00,
2013-10-17 03:32:00,52.5,51.6,29.77,SE,142,1.0,4.0,97,0.01,,,0.02,meteohub,2013-10-17 07:32:00,
2013-10-17 03:37:00,52.5,51.6,29.76,SE,134,0.0,4.0,97,0.01,,,0.02,meteohub,2013-10-17 07:37:00,
2013-10-17 03:42:00,52.5,51.6,29.77,SW,225,0.0,4.0,97,0.01,,,0.02,meteohub,2013-10-17 07:42:00,
2013-10-17 03:47:00,52.5,51.6,29.77,SW,215,0.0,4.0,97,0.00,,,0.02,meteohub,2013-10-17 07:47:00,
2013-10-17 03:52:00,52.5,51.6,29.77,SSW,213,0.0,3.0,97,0.00,,,0.02,meteohub,2013-10-17 07:52:00,
2013-10-17 03:57:00,52.5,51.6,29.77,SW,215,1.0,3.0,97,0.00,,,0.02,meteohub,2013-10-17 07:57:00,
2013-10-17 04:02:00,52.5,51.6,29.78,South,187,0.0,3.0,97,0.00,,,0.02,meteohub,2013-10-17 08:02:00,
2013-10-17 04:07:00,52.5,51.6,29.78,South,186,0.0,4.0,97,0.00,,,0.02,meteohub,2013-10-17 08:07:00,
2013-10-17 04:12:00,52.5,51.6,29.78,South,186,0.0,4.0,97,0.00,,,0.02,meteohub,2013-10-17 08:12:00,
2013-10-17 04:14:00,52.5,51.6,29.77,South,186,0.0,4.0,97,0.00,,,0.02,meteohub,2013-10-17 08:14:00,
2013-10-17 04:19:00,52.5,51.6,29.77,SE,133,1.0,4.0,97,0.00,,,0.02,meteohub,2013-10-17 08:19:00,
2013-10-17 04:24:00,52.5,51.6,29.77,SE,134,2.0,2.0,97,0.00,,,0.02,meteohub,2013-10-17 08:24:00,
2013-10-17 04:29:00,52.5,51.6,29.76,ESE,117,8.0,8.0,97,0.00,,,0.02,meteohub,2013-10-17 08:29:00,
2013-10-17 04:35:00,52.5,51.6,29.76,SSW,200,1.0,5.0,97,0.00,,,0.02,meteohub,2013-10-17 08:35:00,
2013-10-17 04:40:00,52.5,51.6,29.76,SE,127,1.0,8.0,97,0.00,,,0.02,meteohub,2013-10-17 08:40:00,
2013-10-17 04:45:00,52.7,51.8,29.77,South,190,3.0,6.0,97,0.00,,,0.02,meteohub,2013-10-17 08:45:00,
2013-10-17 04:50:00,52.7,51.8,29.76,South,175,0.0,8.0,97,0.00,,,0.02,meteohub,2013-10-17 08:50:00,
2013-10-17 04:55:00,52.7,51.8,29.76,South,187,3.0,8.0,97,0.00,,,0.02,meteohub,2013-10-17 08:55:00,
2013-10-17 05:00:00,52.7,51.8,29.76,South,188,2.0,6.0,97,0.00,,,0.02,meteohub,2013-10-17 09:00:00,
2013-10-17 05:05:00,52.7,51.8,29.76,SW,221,3.0,5.0,97,0.01,,,0.03,meteohub,2013-10-17 09:05:00,
2013-10-17 05:10:00,52.7,51.8,29.77,SW,222,0.0,5.0,97,0.01,,,0.03,meteohub,2013-10-17 09:10:00,
2013-10-17 05:16:00,52.7,51.8,29.77,SW,219,0.0,5.0,97,0.01,,,0.03,meteohub,2013-10-17 09:16:00,
2013-10-17 05:21:00,52.7,51.8,29.77,South,184,0.0,5.0,97,0.01,,,0.03,meteohub,2013-10-17 09:21:00,
2013-10-17 05:26:00,52.7,51.8,29.76,South,178,2.0,5.0,97,0.01,,,0.03,meteohub,2013-10-17 09:26:00,
2013-10-17 05:31:00,52.7,51.8,29.76,SSE,150,1.0,3.0,97,0.01,,,0.03,meteohub,2013-10-17 09:31:00,
2013-10-17 05:36:00,52.5,51.6,29.75,SE,140,2.0,3.0,97,0.02,,,0.04,meteohub,2013-10-17 09:36:00,
2013-10-17 05:41:00,52.5,51.6,29.75,SE,134,0.0,7.0,97,0.02,,,0.04,meteohub,2013-10-17 09:41:00,
2013-10-17 05:46:00,52.5,51.6,29.75,SSE,149,0.0,7.0,97,0.02,,,0.04,meteohub,2013-10-17 09:46:00,
2013-10-17 05:51:00,52.5,51.6,29.75,SSE,152,0.0,4.0,97,0.02,,,0.04,meteohub,2013-10-17 09:51:00,
2013-10-17 05:57:00,52.5,51.6,29.75,SSE,155,1.0,4.0,97,0.02,,,0.04,meteohub,2013-10-17 09:57:00,
2013-10-17 06:02:00,52.5,51.6,29.75,SSE,166,0.0,4.0,97,0.01,,,0.04,meteohub,2013-10-17 10:02:00,
2013-10-17 06:07:00,52.5,51.6,29.75,SSE,160,0.0,4.0,97,0.01,,,0.04,meteohub,2013-10-17 10:07:00,
2013-10-17 06:12:00,52.3,51.4,29.75,SSE,162,0.0,2.0,97,0.01,,,0.04,meteohub,2013-10-17 10:12:00,
2013-10-17 06:17:00,52.5,51.6,29.75,SSW,207,0.0,1.0,97,0.01,,,0.04,meteohub,2013-10-17 10:17:00,
2013-10-17 06:22:00,52.3,51.4,29.75,SSW,207,0.0,2.0,97,0.01,,,0.04,meteohub,2013-10-17 10:22:00,
2013-10-17 06:27:00,52.3,51.4,29.75,SSW,207,0.0,2.0,97,0.01,,,0.04,meteohub,2013-10-17 10:27:00,
2013-10-17 06:32:00,52.3,51.4,29.74,SSW,207,0.0,2.0,97,0.00,,,0.04,meteohub,2013-10-17 10:32:00,
2013-10-17 06:37:00,52.3,51.4,29.73,SSW,207,0.0,1.0,97,0.00,,,0.04,meteohub,2013-10-17 10:37:00,
2013-10-17 06:42:00,52.3,51.4,29.74,SSW,208,0.0,0.0,97,0.00,,,0.04,meteohub,2013-10-17 10:42:00,
2013-10-17 06:47:00,52.2,51.3,29.74,SSW,208,0.0,1.0,97,0.00,,,0.04,meteohub,2013-10-17 10:47:00,
2013-10-17 06:52:00,52.2,51.6,29.74,SSW,208,0.0,1.0,98,0.00,,,0.04,meteohub,2013-10-17 10:52:00,
2013-10-17 06:57:00,52.2,51.6,29.74,SSW,208,0.0,1.0,98,0.00,,,0.04,meteohub,2013-10-17 10:57:00,
2013-10-17 07:02:00,52.2,51.6,29.74,SSW,208,0.0,0.0,98,0.00,,,0.04,meteohub,2013-10-17 11:02:00,
2013-10-17 07:07:00,52.2,51.3,29.73,SSW,208,0.0,0.0,97,0.00,,,0.04,meteohub,2013-10-17 11:07:00,
2013-10-17 07:12:00,52.2,51.3,29.73,SSW,208,0.0,0.0,97,0.00,,,0.04,meteohub,2013-10-17 11:12:00,
2013-10-17 07:17:00,52.2,51.6,29.73,SSW,208,0.0,0.0,98,0.00,,,0.04,meteohub,2013-10-17 11:17:00,
2013-10-17 07:22:00,52.2,51.6,29.73,SSW,208,0.0,1.0,98,0.00,,,0.04,meteohub,2013-10-17 11:22:00,
2013-10-17 07:27:00,52.2,51.6,29.73,SW,214,0.0,1.0,98,0.00,,,0.04,meteohub,2013-10-17 11:27:00,
2013-10-17 07:32:00,52.2,51.6,29.74,SW,220,3.0,4.0,98,0.01,,,0.04,meteohub,2013-10-17 11:32:00,
2013-10-17 07:37:00,52.2,51.6,29.74,South,190,0.0,5.0,98,0.01,,,0.05,meteohub,2013-10-17 11:37:00,
2013-10-17 07:42:00,52.2,51.6,29.73,SSW,192,0.0,5.0,98,0.01,,,0.05,meteohub,2013-10-17 11:42:00,
2013-10-17 07:47:00,52.2,51.6,29.73,SSW,212,4.0,5.0,98,0.01,,,0.05,meteohub,2013-10-17 11:47:00,
2013-10-17 07:52:00,52.2,51.6,29.73,SSE,167,1.0,4.0,98,0.02,,,0.06,meteohub,2013-10-17 11:52:00,
2013-10-17 07:57:00,52.2,51.6,29.71,SE,126,4.0,4.0,98,0.04,,,0.08,meteohub,2013-10-17 11:57:00,
2013-10-17 08:02:00,52.2,51.6,29.72,SSE,150,0.0,8.0,98,0.04,,,0.08,meteohub,2013-10-17 12:02:00,
2013-10-17 08:07:00,52.2,51.6,29.72,SE,146,2.0,8.0,98,0.04,,,0.08,meteohub,2013-10-17 12:07:00,
2013-10-17 08:12:00,52.3,51.8,29.71,SE,133,3.0,8.0,98,0.04,,,0.08,meteohub,2013-10-17 12:12:00,
2013-10-17 08:18:00,52.3,51.8,29.71,SSE,161,2.0,7.0,98,0.04,,,0.08,meteohub,2013-10-17 12:18:00,
2013-10-17 08:23:00,52.3,51.8,29.71,South,176,1.0,6.0,98,0.04,,,0.08,meteohub,2013-10-17 12:23:00,
2013-10-17 08:28:00,52.3,51.8,29.71,South,190,0.0,6.0,98,0.04,,,0.08,meteohub,2013-10-17 12:28:00,
2013-10-17 08:33:00,52.3,51.8,29.72,SSW,192,0.0,6.0,98,0.03,,,0.08,meteohub,2013-10-17 12:33:00,
2013-10-17 08:38:00,52.5,52.0,29.72,SSE,160,0.0,3.0,98,0.03,,,0.08,meteohub,2013-10-17 12:38:00,
2013-10-17 08:43:00,52.5,52.0,29.72,SE,130,0.0,3.0,98,0.03,,,0.08,meteohub,2013-10-17 12:43:00,
2013-10-17 08:48:00,52.5,52.0,29.72,SSE,167,1.0,3.0,98,0.02,,,0.08,meteohub,2013-10-17 12:48:00,
2013-10-17 08:53:00,52.5,52.0,29.71,SE,141,0.0,3.0,98,0.01,,,0.08,meteohub,2013-10-17 12:53:00,
2013-10-17 08:59:00,52.5,52.0,29.71,SSE,155,0.0,3.0,98,0.00,,,0.08,meteohub,2013-10-17 12:59:00,
2013-10-17 09:04:00,52.7,52.2,29.71,SSW,213,1.0,3.0,98,0.00,,,0.08,meteohub,2013-10-17 13:04:00,
2013-10-17 09:09:00,52.7,52.2,29.71,South,179,0.0,4.0,98,0.00,,,0.08,meteohub,2013-10-17 13:09:00,
2013-10-17 09:14:00,52.7,51.8,29.71,South,178,0.0,4.0,97,0.00,,,0.08,meteohub,2013-10-17 13:14:00,
2013-10-17 09:19:00,52.7,51.8,29.71,ESE,117,2.0,4.0,97,0.00,,,0.08,meteohub,2013-10-17 13:19:00,
2013-10-17 09:24:00,52.5,51.6,29.71,SE,126,1.0,2.0,97,0.00,,,0.08,meteohub,2013-10-17 13:24:00,
2013-10-17 09:29:00,52.7,51.8,29.71,ESE,117,0.0,4.0,97,0.00,,,0.08,meteohub,2013-10-17 13:29:00,
2013-10-17 09:34:00,52.7,51.8,29.71,SE,134,0.0,4.0,97,0.00,,,0.08,meteohub,2013-10-17 13:34:00,
2013-10-17 09:40:00,52.7,51.8,29.71,ESE,123,1.0,5.0,97,0.01,,,0.09,meteohub,2013-10-17 13:40:00,
2013-10-17 09:45:00,52.7,51.8,29.71,SSW,205,2.0,5.0,97,0.01,,,0.09,meteohub,2013-10-17 13:45:00,
2013-10-17 09:50:00,52.7,51.8,29.70,SE,126,3.0,4.0,97,0.01,,,0.09,meteohub,2013-10-17 13:50:00,
2013-10-17 09:55:00,52.9,52.0,29.70,SE,130,1.0,5.0,97,0.01,,,0.09,meteohub,2013-10-17 13:55:00,
2013-10-17 10:00:00,53.1,52.2,29.70,SE,144,1.0,5.0,97,0.01,,,0.09,meteohub,2013-10-17 14:00:00,
2013-10-17 10:05:00,53.1,52.2,29.70,SE,138,2.0,4.0,97,0.01,,,0.09,meteohub,2013-10-17 14:05:00,
2013-10-17 10:10:00,53.2,52.3,29.70,ESE,113,1.0,4.0,97,0.01,,,0.09,meteohub,2013-10-17 14:10:00,
2013-10-17 10:15:00,53.2,52.3,29.70,ESE,116,1.0,3.0,97,0.01,,,0.09,meteohub,2013-10-17 14:15:00,
2013-10-17 10:21:00,53.2,52.3,29.70,South,180,1.0,5.0,97,0.01,,,0.09,meteohub,2013-10-17 14:21:00,
2013-10-17 10:26:00,53.4,52.5,29.70,SE,126,1.0,5.0,97,0.01,,,0.09,meteohub,2013-10-17 14:26:00,
2013-10-17 10:31:00,53.4,52.3,29.70,SSE,168,0.0,5.0,96,0.01,,,0.09,meteohub,2013-10-17 14:31:00,
2013-10-17 10:36:00,53.4,52.3,29.70,South,172,0.0,4.0,96,0.00,,,0.09,meteohub,2013-10-17 14:36:00,
2013-10-17 10:41:00,53.6,52.7,29.69,South,178,2.0,4.0,97,0.00,,,0.09,meteohub,2013-10-17 14:41:00,
2013-10-17 10:46:00,54.0,53.1,29.69,SSE,160,0.0,3.0,97,0.00,,,0.09,meteohub,2013-10-17 14:46:00,
2013-10-17 10:51:00,54.1,53.2,29.69,SSE,150,2.0,2.0,97,0.00,,,0.09,meteohub,2013-10-17 14:51:00,
2013-10-17 10:56:00,54.5,53.6,29.69,SSE,160,0.0,2.0,97,0.00,,,0.09,meteohub,2013-10-17 14:56:00,
2013-10-17 11:02:00,54.7,53.6,29.69,SSW,209,1.0,2.0,96,0.00,,,0.09,meteohub,2013-10-17 15:02:00,
2013-10-17 11:07:00,54.9,53.8,29.69,SSE,152,2.0,4.0,96,0.00,,,0.09,meteohub,2013-10-17 15:07:00,
2013-10-17 11:12:00,54.9,53.8,29.69,SSE,158,0.0,4.0,96,0.00,,,0.09,meteohub,2013-10-17 15:12:00,
2013-10-17 11:17:00,55.0,54.0,29.70,South,189,0.0,4.0,96,0.00,,,0.09,meteohub,2013-10-17 15:17:00,
2013-10-17 11:22:00,55.2,54.1,29.69,WSW,249,0.0,4.0,96,0.00,,,0.09,meteohub,2013-10-17 15:22:00,
2013-10-17 11:27:00,55.6,54.1,29.69,SW,233,0.0,3.0,95,0.00,,,0.09,meteohub,2013-10-17 15:27:00,
2013-10-17 11:32:00,55.9,54.9,29.69,SW,233,0.0,3.0,96,0.00,,,0.09,meteohub,2013-10-17 15:32:00,
2013-10-17 11:37:00,56.3,54.9,29.69,SW,233,0.0,3.0,95,0.00,,,0.09,meteohub,2013-10-17 15:37:00,
2013-10-17 11:42:00,56.7,55.0,29.69,East,87,0.0,1.0,94,0.00,,,0.09,meteohub,2013-10-17 15:42:00,
2013-10-17 11:47:00,56.8,54.9,29.68,ESE,102,0.0,2.0,93,0.00,,,0.09,meteohub,2013-10-17 15:47:00,
2013-10-17 11:52:00,57.0,54.1,29.68,WSW,248,0.0,2.0,90,0.00,,,0.09,meteohub,2013-10-17 15:52:00,
2013-10-17 11:57:00,57.4,54.9,29.68,WSW,252,1.0,4.0,91,0.00,,,0.09,meteohub,2013-10-17 15:57:00,
2013-10-17 12:02:00,57.7,54.5,29.68,SSW,205,0.0,4.0,89,0.00,,,0.09,meteohub,2013-10-17 16:02:00,
2013-10-17 12:07:00,58.5,54.7,29.68,WNW,289,4.0,4.0,87,0.00,,,0.09,meteohub,2013-10-17 16:07:00,
2013-10-17 12:12:00,59.0,54.5,29.68,WNW,292,3.0,6.0,85,0.00,,,0.09,meteohub,2013-10-17 16:12:00,
2013-10-17 12:17:00,59.7,55.2,29.68,WNW,292,5.0,7.0,85,0.00,,,0.09,meteohub,2013-10-17 16:17:00,
2013-10-17 12:23:00,59.9,54.3,29.68,NNW,348,3.0,7.0,82,0.00,,,0.09,meteohub,2013-10-17 16:23:00,
2013-10-17 12:28:00,60.1,54.3,29.68,West,275,5.0,11.0,81,0.00,,,0.09,meteohub,2013-10-17 16:28:00,
2013-10-17 12:33:00,59.7,54.0,29.68,WNW,282,4.0,11.0,81,0.00,,,0.09,meteohub,2013-10-17 16:33:00,
2013-10-17 12:38:00,59.5,52.7,29.68,WNW,298,7.0,10.0,78,0.00,,,0.09,meteohub,2013-10-17 16:38:00,
2013-10-17 12:43:00,59.2,52.3,29.68,NNE,18,0.0,10.0,78,0.00,,,0.09,meteohub,2013-10-17 16:43:00,
2013-10-17 12:48:00,59.2,52.3,29.67,North,355,0.0,10.0,78,0.00,,,0.09,meteohub,2013-10-17 16:48:00,
2013-10-17 12:53:00,59.0,52.2,29.67,West,262,0.0,10.0,78,0.00,,,0.09,meteohub,2013-10-17 16:53:00,
2013-10-17 12:58:00,59.0,52.5,29.67,SSW,205,0.0,6.0,79,0.00,,,0.09,meteohub,2013-10-17 16:58:00,
2013-10-17 13:04:00,59.7,52.2,29.66,SW,229,9.0,9.0,76,0.00,,,0.09,meteohub,2013-10-17 17:04:00,
2013-10-17 13:09:00,59.9,52.3,29.67,SSW,212,1.0,14.0,76,0.00,,,0.09,meteohub,2013-10-17 17:09:00,
2013-10-17 13:14:00,59.7,51.4,29.67,WSW,252,3.0,14.0,74,0.00,,,0.09,meteohub,2013-10-17 17:14:00,
2013-10-17 13:19:00,59.7,51.8,29.67,SW,217,7.0,14.0,75,0.00,,,0.09,meteohub,2013-10-17 17:19:00,
2013-10-17 13:24:00,59.7,52.2,29.67,North,355,0.0,9.0,76,0.00,,,0.09,meteohub,2013-10-17 17:24:00,
2013-10-17 13:29:00,59.7,52.2,29.67,North,355,0.0,9.0,76,0.00,,,0.09,meteohub,2013-10-17 17:29:00,
2013-10-17 13:35:00,59.7,51.8,29.66,SW,224,4.0,8.0,75,0.00,,,0.09,meteohub,2013-10-17 17:35:00,
2013-10-17 13:40:00,59.7,51.8,29.67,SW,221,6.0,6.0,75,0.00,,,0.09,meteohub,2013-10-17 17:40:00,
2013-10-17 13:45:00,59.7,51.8,29.67,West,260,1.0,8.0,75,0.00,,,0.09,meteohub,2013-10-17 17:45:00,
2013-10-17 13:50:00,59.9,52.3,29.66,WSW,237,2.0,8.0,76,0.00,,,0.09,meteohub,2013-10-17 17:50:00,
2013-10-17 13:55:00,60.1,52.2,29.66,WSW,256,0.0,7.0,75,0.00,,,0.09,meteohub,2013-10-17 17:55:00,
2013-10-17 14:00:00,60.3,52.3,29.66,WSW,256,1.0,7.0,75,0.00,,,0.09,meteohub,2013-10-17 18:00:00,
2013-10-17 14:05:00,60.4,52.5,29.66,WNW,283,0.0,7.0,75,0.00,,,0.09,meteohub,2013-10-17 18:05:00,
2013-10-17 14:10:00,60.6,52.7,29.66,SSW,210,0.0,8.0,75,0.00,,,0.09,meteohub,2013-10-17 18:10:00,
2013-10-17 14:16:00,60.4,52.2,29.66,West,277,1.0,8.0,74,0.00,,,0.09,meteohub,2013-10-17 18:16:00,
2013-10-17 14:21:00,60.1,52.2,29.66,SW,230,5.0,8.0,75,0.00,,,0.09,meteohub,2013-10-17 18:21:00,
2013-10-17 14:26:00,59.5,52.0,29.66,WSW,252,1.0,16.0,76,0.00,,,0.09,meteohub,2013-10-17 18:26:00,
2013-10-17 14:31:00,59.5,52.3,29.66,SW,221,4.0,16.0,77,0.00,,,0.09,meteohub,2013-10-17 18:31:00,
2013-10-17 14:36:00,59.5,51.6,29.66,SW,236,2.0,11.0,75,0.00,,,0.09,meteohub,2013-10-17 18:36:00,
2013-10-17 14:41:00,59.9,52.0,29.66,West,278,3.0,11.0,75,0.00,,,0.09,meteohub,2013-10-17 18:41:00,
2013-10-17 14:46:00,60.4,51.8,29.66,SE,142,0.0,9.0,73,0.00,,,0.09,meteohub,2013-10-17 18:46:00,
2013-10-17 14:51:00,61.3,52.2,29.66,WNW,286,6.0,11.0,72,0.00,,,0.09,meteohub,2013-10-17 18:51:00,
2013-10-17 14:57:00,61.3,51.8,29.66,NNE,15,1.0,13.0,71,0.00,,,0.09,meteohub,2013-10-17 18:57:00,
2013-10-17 15:02:00,61.5,51.3,29.66,NNW,344,4.0,13.0,69,0.00,,,0.09,meteohub,2013-10-17 19:02:00,
2013-10-17 15:07:00,61.9,51.3,29.66,West,279,5.0,13.0,68,0.00,,,0.09,meteohub,2013-10-17 19:07:00,
2013-10-17 15:12:00,61.5,50.0,29.66,West,275,7.0,11.0,66,0.00,,,0.09,meteohub,2013-10-17 19:12:00,
2013-10-17 15:17:00,61.3,50.4,29.66,SW,223,2.0,11.0,67,0.00,,,0.09,meteohub,2013-10-17 19:17:00,
2013-10-17 15:22:00,61.9,50.7,29.66,North,5,2.0,11.0,67,0.00,,,0.09,meteohub,2013-10-17 19:22:00,
2013-10-17 15:27:00,62.1,50.9,29.66,SSE,152,1.0,9.0,67,0.00,,,0.09,meteohub,2013-10-17 19:27:00,
2013-10-17 15:32:00,62.1,50.9,29.66,ESE,119,0.0,9.0,67,0.00,,,0.09,meteohub,2013-10-17 19:32:00,
2013-10-17 15:37:00,61.9,50.4,29.66,WNW,288,5.0,7.0,66,0.00,,,0.09,meteohub,2013-10-17 19:37:00,
2013-10-17 15:42:00,61.9,50.7,29.66,NNE,12,2.0,8.0,67,0.00,,,0.09,meteohub,2013-10-17 19:42:00,
2013-10-17 15:47:00,61.9,50.7,29.66,SSW,213,0.0,11.0,67,0.00,,,0.09,meteohub,2013-10-17 19:47:00,
2013-10-17 15:52:00,62.1,50.5,29.66,WNW,300,0.0,11.0,66,0.00,,,0.09,meteohub,2013-10-17 19:52:00,
2013-10-17 15:58:00,62.1,50.2,29.66,WSW,257,2.0,11.0,65,0.00,,,0.09,meteohub,2013-10-17 19:58:00,
2013-10-17 16:03:00,62.2,50.7,29.66,South,184,0.0,11.0,66,0.00,,,0.09,meteohub,2013-10-17 20:03:00,
2013-10-17 16:08:00,61.9,50.0,29.66,SW,218,8.0,11.0,65,0.00,,,0.09,meteohub,2013-10-17 20:08:00,
2013-10-17 16:13:00,61.0,50.0,29.66,WNW,303,9.0,12.0,67,0.00,,,0.09,meteohub,2013-10-17 20:13:00,
2013-10-17 16:18:00,60.4,49.8,29.66,SW,233,6.0,12.0,68,0.00,,,0.09,meteohub,2013-10-17 20:18:00,
2013-10-17 16:23:00,60.1,49.8,29.67,South,182,0.0,12.0,69,0.00,,,0.09,meteohub,2013-10-17 20:23:00,
2013-10-17 16:28:00,60.1,49.8,29.66,WSW,255,3.0,12.0,69,0.00,,,0.09,meteohub,2013-10-17 20:28:00,
2013-10-17 16:34:00,59.9,50.2,29.66,NNE,24,1.0,12.0,70,0.00,,,0.09,meteohub,2013-10-17 20:34:00,
2013-10-17 16:39:00,59.7,50.0,29.66,WNW,292,1.0,8.0,70,0.00,,,0.09,meteohub,2013-10-17 20:39:00,
2013-10-17 16:44:00,59.5,50.2,29.66,SSW,209,5.0,9.0,71,0.00,,,0.09,meteohub,2013-10-17 20:44:00,
2013-10-17 16:49:00,59.4,50.4,29.66,West,265,0.0,9.0,72,0.00,,,0.09,meteohub,2013-10-17 20:49:00,
2013-10-17 16:54:00,59.2,49.8,29.66,West,261,0.0,5.0,71,0.00,,,0.09,meteohub,2013-10-17 20:54:00,
2013-10-17 16:59:00,59.0,50.0,29.66,West,261,0.0,6.0,72,0.00,,,0.09,meteohub,2013-10-17 20:59:00,
2013-10-17 17:05:00,58.8,50.2,29.66,West,263,0.0,6.0,73,0.00,,,0.09,meteohub,2013-10-17 21:05:00,
2013-10-17 17:10:00,58.8,49.8,29.66,NW,304,3.0,6.0,72,0.00,,,0.09,meteohub,2013-10-17 21:10:00,
2013-10-17 17:15:00,58.6,50.0,29.66,WSW,250,1.0,7.0,73,0.00,,,0.09,meteohub,2013-10-17 21:15:00,
2013-10-17 17:20:00,58.5,49.8,29.66,WSW,248,0.0,7.0,73,0.00,,,0.09,meteohub,2013-10-17 21:20:00,
2013-10-17 17:25:00,58.5,49.8,29.66,WSW,248,0.0,7.0,73,0.00,,,0.09,meteohub,2013-10-17 21:25:00,
2013-10-17 17:30:00,58.3,49.6,29.66,WSW,254,0.0,5.0,73,0.00,,,0.09,meteohub,2013-10-17 21:30:00,
2013-10-17 17:35:00,57.9,49.6,29.66,NW,313,2.0,7.0,74,0.00,,,0.09,meteohub,2013-10-17 21:35:00,
2013-10-17 17:40:00,57.7,49.5,29.67,NW,313,3.0,8.0,74,0.00,,,0.09,meteohub,2013-10-17 21:40:00,
2013-10-17 17:46:00,57.6,49.3,29.67,WSW,252,5.0,8.0,74,0.00,,,0.09,meteohub,2013-10-17 21:46:00,
2013-10-17 17:51:00,57.2,49.3,29.67,WSW,257,0.0,9.0,75,0.00,,,0.09,meteohub,2013-10-17 21:51:00,
2013-10-17 17:56:00,56.8,48.9,29.67,NE,39,0.0,9.0,75,0.00,,,0.09,meteohub,2013-10-17 21:56:00,
2013-10-17 18:01:00,56.7,49.1,29.67,NNW,346,0.0,11.0,76,0.00,,,0.09,meteohub,2013-10-17 22:01:00,
2013-10-17 18:06:00,56.5,49.3,29.68,SSW,196,0.0,11.0,77,0.00,,,0.09,meteohub,2013-10-17 22:06:00,
2013-10-17 18:11:00,56.1,48.9,29.67,SW,236,3.0,9.0,77,0.00,,,0.09,meteohub,2013-10-17 22:11:00,
2013-10-17 18:16:00,55.9,49.1,29.68,West,262,1.0,6.0,78,0.00,,,0.09,meteohub,2013-10-17 22:16:00,
2013-10-17 18:22:00,55.9,49.1,29.68,SSE,155,3.0,5.0,78,0.00,,,0.09,meteohub,2013-10-17 22:22:00,
2013-10-17 18:27:00,55.8,49.3,29.67,West,262,0.0,4.0,79,0.00,,,0.09,meteohub,2013-10-17 22:27:00,
2013-10-17 18:32:00,55.6,49.1,29.68,WSW,256,5.0,5.0,79,0.00,,,0.09,meteohub,2013-10-17 22:32:00,
2013-10-17 18:37:00,55.6,49.5,29.68,NW,311,1.0,7.0,80,0.00,,,0.09,meteohub,2013-10-17 22:37:00,
2013-10-17 18:42:00,55.6,49.5,29.68,NW,312,3.0,7.0,80,0.00,,,0.09,meteohub,2013-10-17 22:42:00,
2013-10-17 18:47:00,55.6,49.5,29.68,North,5,0.0,7.0,80,0.00,,,0.09,meteohub,2013-10-17 22:47:00,
2013-10-17 18:52:00,55.6,49.8,29.68,North,5,1.0,6.0,81,0.00,,,0.09,meteohub,2013-10-17 22:52:00,
2013-10-17 18:57:00,55.6,49.8,29.68,West,275,0.0,4.0,81,0.00,,,0.09,meteohub,2013-10-17 22:57:00,
2013-10-17 19:02:00,55.4,49.6,29.68,WSW,247,0.0,4.0,81,0.00,,,0.09,meteohub,2013-10-17 23:02:00,
2013-10-17 19:07:00,55.2,49.5,29.68,WSW,246,0.0,4.0,81,0.00,,,0.09,meteohub,2013-10-17 23:07:00,
2013-10-17 19:12:00,55.2,49.8,29.68,WSW,246,0.0,2.0,82,0.00,,,0.09,meteohub,2013-10-17 23:12:00,
2013-10-17 19:17:00,55.0,49.6,29.68,WSW,248,0.0,2.0,82,0.00,,,0.09,meteohub,2013-10-17 23:17:00,
2013-10-17 19:22:00,54.9,49.8,29.68,WSW,248,0.0,2.0,83,0.00,,,0.09,meteohub,2013-10-17 23:22:00,
2013-10-17 19:27:00,54.9,49.8,29.68,WSW,248,0.0,2.0,83,0.00,,,0.09,meteohub,2013-10-17 23:27:00,
2013-10-17 19:32:00,54.9,49.8,29.68,WSW,248,0.0,2.0,83,0.00,,,0.09,meteohub,2013-10-17 23:32:00,
2013-10-17 19:37:00,54.5,49.8,29.68,WSW,248,0.0,2.0,84,0.00,,,0.09,meteohub,2013-10-17 23:37:00,
2013-10-17 19:42:00,54.1,49.5,29.68,WSW,242,0.0,2.0,84,0.00,,,0.09,meteohub,2013-10-17 23:42:00,
2013-10-17 19:47:00,54.3,49.8,29.68,WSW,254,1.0,4.0,85,0.00,,,0.09,meteohub,2013-10-17 23:47:00,
2013-10-17 19:52:00,54.5,49.8,29.68,SW,235,0.0,4.0,84,0.00,,,0.09,meteohub,2013-10-17 23:52:00,
2013-10-17 19:57:00,54.5,49.8,29.68,SW,230,0.0,5.0,84,0.00,,,0.09,meteohub,2013-10-17 23:57:00,
2013-10-17 20:02:00,54.3,49.6,29.68,SSW,213,0.0,5.0,84,0.00,,,0.09,meteohub,2013-10-18 00:02:00,
2013-10-17 20:07:00,54.3,49.8,29.68,WSW,244,3.0,4.0,85,0.00,,,0.00,meteohub,2013-10-18 00:07:00,
2013-10-17 20:12:00,54.3,49.8,29.68,SW,224,2.0,7.0,85,0.00,,,0.00,meteohub,2013-10-18 00:12:00,
2013-10-17 20:17:00,54.3,49.8,29.68,SW,216,0.0,7.0,85,0.00,,,0.00,meteohub,2013-10-18 00:17:00,
2013-10-17 20:22:00,54.0,49.6,29.68,NW,322,0.0,7.0,85,0.00,,,0.00,meteohub,2013-10-18 00:22:00,
2013-10-17 20:27:00,54.0,49.6,29.68,SW,229,0.0,3.0,85,0.00,,,0.00,meteohub,2013-10-18 00:27:00,
2013-10-17 20:32:00,54.0,49.8,29.68,SSW,198,0.0,4.0,86,0.00,,,0.00,meteohub,2013-10-18 00:32:00,
2013-10-17 20:37:00,54.0,49.6,29.68,SW,225,0.0,5.0,85,0.00,,,0.00,meteohub,2013-10-18 00:37:00,
2013-10-17 20:42:00,53.8,49.6,29.68,NE,48,0.0,5.0,86,0.00,,,0.00,meteohub,2013-10-18 00:42:00,
2013-10-17 20:47:00,53.4,49.3,29.68,NE,47,0.0,4.0,86,0.00,,,0.00,meteohub,2013-10-18 00:47:00,
2013-10-17 20:52:00,53.4,49.6,29.68,NW,304,0.0,3.0,87,0.00,,,0.00,meteohub,2013-10-18 00:52:00,
2013-10-17 20:57:00,53.4,49.6,29.68,SW,223,0.0,1.0,87,0.00,,,0.00,meteohub,2013-10-18 00:57:00,
2013-10-17 21:02:00,53.4,49.3,29.68,NNE,17,0.0,3.0,86,0.00,,,0.00,meteohub,2013-10-18 01:02:00,
2013-10-17 21:07:00,53.4,49.6,29.68,East,94,2.0,4.0,87,0.00,,,0.00,meteohub,2013-10-18 01:07:00,
2013-10-17 21:12:00,53.4,49.3,29.69,North,0,2.0,4.0,86,0.00,,,0.00,meteohub,2013-10-18 01:12:00,
2013-10-17 21:17:00,53.4,49.3,29.68,SW,228,0.0,4.0,86,0.00,,,0.00,meteohub,2013-10-18 01:17:00,
2013-10-17 21:22:00,53.4,49.3,29.68,SW,219,0.0,5.0,86,0.00,,,0.00,meteohub,2013-10-18 01:22:00,
2013-10-17 21:27:00,53.4,49.3,29.68,West,277,0.0,5.0,86,0.00,,,0.00,meteohub,2013-10-18 01:27:00,
2013-10-17 21:32:00,53.4,49.3,29.68,NW,311,5.0,5.0,86,0.00,,,0.00,meteohub,2013-10-18 01:32:00,
2013-10-17 21:37:00,53.4,49.3,29.68,WSW,250,4.0,6.0,86,0.00,,,0.00,meteohub,2013-10-18 01:37:00,
2013-10-17 21:43:00,53.4,49.3,29.68,SW,222,2.0,6.0,86,0.00,,,0.00,meteohub,2013-10-18 01:43:00,
2013-10-17 21:48:00,53.4,49.3,29.68,SW,227,2.0,6.0,86,0.00,,,0.00,meteohub,2013-10-18 01:48:00,
2013-10-17 21:53:00,53.4,49.3,29.68,WSW,257,0.0,8.0,86,0.00,,,0.00,meteohub,2013-10-18 01:53:00,
2013-10-17 21:58:00,53.2,49.1,29.68,West,265,3.0,9.0,86,0.00,,,0.00,meteohub,2013-10-18 01:58:00,
2013-10-17 22:03:00,53.2,49.1,29.68,SW,216,3.0,9.0,86,0.00,,,0.00,meteohub,2013-10-18 02:03:00,
2013-10-17 22:08:00,53.1,48.9,29.68,West,267,3.0,6.0,86,0.00,,,0.00,meteohub,2013-10-18 02:08:00,
2013-10-17 22:13:00,52.9,49.1,29.68,SSW,200,3.0,6.0,87,0.00,,,0.00,meteohub,2013-10-18 02:13:00,
2013-10-17 22:18:00,52.7,48.9,29.68,WSW,258,0.0,5.0,87,0.00,,,0.00,meteohub,2013-10-18 02:18:00,
2013-10-17 22:24:00,52.5,48.7,29.68,WSW,258,0.0,4.0,87,0.00,,,0.00,meteohub,2013-10-18 02:24:00,
2013-10-17 22:29:00,52.3,48.9,29.68,WSW,256,0.0,4.0,88,0.00,,,0.00,meteohub,2013-10-18 02:29:00,
2013-10-17 22:34:00,52.2,48.7,29.68,West,259,1.0,3.0,88,0.00,,,0.00,meteohub,2013-10-18 02:34:00,
2013-10-17 22:39:00,52.2,48.7,29.67,WNW,297,0.0,3.0,88,0.00,,,0.00,meteohub,2013-10-18 02:39:00,
2013-10-17 22:44:00,52.0,48.6,29.67,North,5,0.0,3.0,88,0.00,,,0.00,meteohub,2013-10-18 02:44:00,
2013-10-17 22:49:00,51.6,48.6,29.67,NNE,30,1.0,3.0,89,0.00,,,0.00,meteohub,2013-10-18 02:49:00,
2013-10-17 22:54:00,51.4,48.4,29.67,NNE,30,0.0,3.0,89,0.00,,,0.00,meteohub,2013-10-18 02:54:00,
2013-10-17 22:59:00,51.3,48.2,29.67,NNE,32,0.0,2.0,89,0.00,,,0.00,meteohub,2013-10-18 02:59:00,
2013-10-17 23:05:00,51.3,48.4,29.67,SE,142,0.0,2.0,90,0.00,,,0.00,meteohub,2013-10-18 03:05:00,
2013-10-17 23:10:00,51.3,48.4,29.67,SE,126,0.0,4.0,90,0.00,,,0.00,meteohub,2013-10-18 03:10:00,
2013-10-17 23:15:00,51.3,48.4,29.67,ENE,75,0.0,4.0,90,0.00,,,0.00,meteohub,2013-10-18 03:15:00,
2013-10-17 23:20:00,51.3,48.4,29.67,North,5,0.0,2.0,90,0.00,,,0.00,meteohub,2013-10-18 03:20:00,
2013-10-17 23:25:00,51.3,48.7,29.67,NNE,23,0.0,4.0,91,0.00,,,0.00,meteohub,2013-10-18 03:25:00,
2013-10-17 23:30:00,51.1,48.2,29.66,NNE,30,0.0,4.0,90,0.00,,,0.00,meteohub,2013-10-18 03:30:00,
2013-10-17 23:35:00,50.9,48.4,29.66,NNE,30,0.0,4.0,91,0.00,,,0.00,meteohub,2013-10-18 03:35:00,
2013-10-17 23:41:00,50.7,48.2,29.67,NNE,30,0.0,2.0,91,0.00,,,0.00,meteohub,2013-10-18 03:41:00,
2013-10-17 23:46:00,50.7,48.2,29.67,NNE,30,0.0,1.0,91,0.00,,,0.00,meteohub,2013-10-18 03:46:00,
2013-10-17 23:51:00,50.0,47.5,29.67,West,264,0.0,2.0,91,0.00,,,0.00,meteohub,2013-10-18 03:51:00,
2013-10-17 23:56:00,49.6,47.5,29.67,West,264,0.0,4.0,92,0.00,,,0.00,meteohub,2013-10-18 03:56:00,